Regional Weather Roundup
Issued by NWS

Home | Current Version | Previous Version | Text Only | Print | Product List | Glossary Off
Versions: 1 2 3 4 5 6 7 8 9 10 11 12 13 14 15 16 17 18 19 20 21 22 23 24 25 26 27 28 29 30 31 32 33 34 35 36 37 38 39 40 41 42 43 44 45 46 47 48 49 50

000
ASUS43 KMPX 180110
RWRMN
WEATHER ROUNDUP FOR MINNESOTA
NATIONAL WEATHER SERVICE TWIN CITIES/CHANHASSEN MN
800 PM CDT WED SEP 17 2014


NOTE: "FAIR" INDICATES FEW OR NO CLOUDS BELOW 12,000 FEET WITH NO
SIGNIFICANT WEATHER AND/OR OBSTRUCTIONS TO VISIBILITY. N/A MEANS
CURRENT SKY AND/OR WEATHER CONDITIONS ARE NOT AVAILABLE.

MNZ060>063-068>070-180200-
   Twin Cities Metro

CITY           SKY/WX    TMP DP  RH WIND       PRES   REMARKS
TWIN CITIES    PTCLDY    68  53  58 NE5       29.97R
ST PAUL        CLEAR     62  56  80 S3        29.97R
CRYSTAL        CLEAR     64  54  69 CALM      29.96R
LAKEVILLE      PTCLDY    63  55  77 CALM      29.97R
EDEN PRAIRIE     N/A    N/A N/A N/A MISG      29.95
SOUTH ST PAUL  CLEAR     66  53  63 CALM      29.97R
LAKE ELMO      FAIR      59  54  82 CALM      29.98R
$$
MNZ001>005-007-008-013>017-022>024-027-028-180200-
   Northwest Minnesota

CITY           SKY/WX    TMP DP  RH WIND       PRES   REMARKS
BEMIDJI        CLEAR     53  46  77 N6        30.02S
HALLOCK        CLEAR     52  43  71 E10       30.07R
ROSEAU         MOCLDY    46  39  76 NE9       30.09S
WARROAD        MOCLDY    46  41  81 NE9       30.10S
THIEF RVR FALL CLEAR     54  43  66 NE10      30.04S
CROOKSTON      CLEAR     55  46  71 NE7       30.04R
FOSSTON        CLEAR     54  45  71 NE3       30.03R
DETROIT LAKES  CLEAR     63  52  67 NE8       30.01R
MOORHEAD       CLEAR     61  55  82 N8        29.99R
PARK RAPIDS    CLEAR     61  51  70 NE8       30.01R
MAHNOMEN       FAIR      55  48  79 NE7       30.01R
$$
MNZ006-009>011-018-025>026-180200-
   North Central Minnesota

CITY           SKY/WX    TMP DP  RH WIND       PRES   REMARKS
BAUDETTE       CLEAR     43  38  82 NE7       30.10R
FLAG ISLAND    MOCLDY    45  36  70 E6        30.10R
INTL FALLS     PTCLDY    44  38  79 NE3       30.10R
WASKISH        CLEAR     48  43  81 CALM      30.07R
BIG FORK       CLEAR     50  43  76 N3        30.07R
LONGVILLE      CLEAR     55  52  88 CALM      30.01R
GRAND RAPIDS   CLOUDY    54  46  76 E6        30.04R
CRANE LAKE     MOCLDY    45  41  87 CALM      30.11R
ORR            CLEAR     45  39  81 CALM      30.06R
COOK           CLOUDY    48  45  87 E3        30.08R
WALKER         FAIR      54  50  84 CALM      30.02R
$$
MNZ012-019>021-037-180200-
   Northeast Minnesota

CITY           SKY/WX    TMP DP  RH WIND       PRES   REMARKS
DULUTH         CLOUDY    45  39  79 E14       30.08R
ELY            CLOUDY    45  43  93 E3        30.09R
HIBBING        CLOUDY    50  43  77 SE7       30.07R
EVELETH        CLOUDY    46  41  81 E6        30.09R
DULUTH HARBOR  CLOUDY    48  45  87 NE24      30.10R
TWO HARBORS    CLOUDY    45  37  76 NE13      30.09R
SILVER BAY     PTCLDY    43  43 100 NE7       30.10R
GRAND MARAIS     N/A     44  41  89 NE6       30.13R
G MARAIS ARPRT CLOUDY    37  36  93 E3        30.11S FOG
$$
MNZ029>031-032-039>041-046>048-054>057-064-180200-
   West Central Minnesota

CITY           SKY/WX    TMP DP  RH WIND       PRES   REMARKS
FERGUS FALLS   CLEAR     66  45  45 CALM      29.97R
WHEATON        PTCLDY    64  52  63 NE3       29.99R
MORRIS         CLEAR     63  54  72 NE5       29.96R
ALEXANDRIA     CLEAR     62  53  72 CALM      29.99R
ELBOW LAKE     FAIR      62  56  80 NE3       29.98R
WADENA         MOCLDY    57  52  82 NE7       29.98R
GLENWOOD       CLEAR     63  54  72 NE5       29.99R
APPLETON       MOCLDY    66  54  63 CALM      29.96R
BENSON         PTCLDY    66  55  68 CALM      29.97R
ORTONVILLE     CLEAR     63  54  72 N3        29.96S
MADISON        CLEAR     66  57  72 CALM      29.96S
WILLMAR        FAIR      63  55  77 NE5       29.98R
$$
MNZ033>034-036-042>043-049>051-058-059-180200-
   Central Minnesota

CITY           SKY/WX    TMP DP  RH WIND       PRES   REMARKS
ST CLOUD       CLEAR     62  55  77 CALM      29.97R
SAUK CENTRE    FAIR      61  54  76 CALM      29.98R
PAYNESVILLE    CLEAR     60  53  79 CALM      29.98R
AITKIN         PTCLDY    54  46  76 E9        30.01R
PINE RIVER     CLEAR     59  52  77 N6        30.03R
BRAINERD       CLEAR     57  52  83 N3        29.99R
STAPLES        MOCLDY    63  50  63 CALM      29.99R
LONG PRAIRIE   FAIR      59  54  82 CALM      29.99R
LITTLE FALLS   CLEAR     57  54  88 CALM      29.98R
LITCHFIELD     CLEAR     63  57  82 CALM      29.98R
BUFFALO        CLEAR     62  56  79 CALM      29.98R
MAPLE LAKE     CLEAR     61  58  91 CALM      29.98R
$$
MNZ037-044-045-052-053-180200-
   East Central Minnesota

CITY           SKY/WX    TMP DP  RH WIND       PRES   REMARKS
PRINCETON      CLEAR     61  54  77 CALM      29.97R
MORA           CLEAR     54  46  76 NE5       30.02R
CAMBRIDGE      CLEAR     61  52  72 CALM      29.96R
RUSH CITY      LGT RAIN  59  53  78 NE7       29.99R
MOOSE LAKE     CLOUDY    46  43  87 NE9       30.04R
HINCKLEY       MOCLDY    50  46  87 NE8G17    30.02R
CLOQUET        CLOUDY    46  41  81 E9        30.07R
MCGREGOR       CLOUDY    46  45  93 E12G17    30.05R
$$
MNZ071>073-080-081-089-090-097-098-180200-
   Southwest Minnesota

CITY           SKY/WX    TMP DP  RH WIND       PRES   REMARKS
MONTEVIDEO     PTCLDY    66  55  68 CALM      29.97R
GRANITE FALLS  CLEAR     64  55  73 NE3       29.97S
CANBY          CLEAR     65  58  76 CALM      29.97S
MARSHALL       PTCLDY    66  52  59 E6        29.95S
REDWOOD FALLS  CLEAR     70  52  52 E3        29.95R
OLIVIA         CLEAR     70  54  56 CALM      29.96R
PIPESTONE      PTCLDY    66  55  68 CALM      29.97R
WINDOM         CLEAR     63  55  77 NE5       29.97R
WORTHINGTON    MOCLDY    66  57  72 NE5       29.97R
JACKSON        MOCLDY    64  55  72 E6        29.97R
TRACY          CLEAR     62  57  83 CALM      29.97R
SLAYTON        CLEAR     63  55  75 CALM      29.98R
$$
MNZ065>067-074>077-082>085-091>093-180200-
   South Central Minnesota

CITY           SKY/WX    TMP DP  RH WIND       PRES   REMARKS
MANKATO        CLEAR     64  50  59 E3        29.96R
NEW ULM        CLEAR     66  55  68 E3        29.96R
ST JAMES       CLEAR     63  55  77 CALM      29.97R
FAIRMONT       PTCLDY    64  50  59 NE6       29.96R
GLENCOE        CLEAR     64  55  72 CALM      29.96R
FARIBAULT      CLEAR     61  54  77 CALM      29.97R
OWATONNA       CLEAR     61  55  82 CALM      29.97R
WASECA         CLEAR     59  50  72 CALM      29.98R
ALBERT LEA     CLEAR     61  54  77 CALM      29.97R
$$
MNZ078>079-086>088-094>096-180200-
   Southeast Minnesota

CITY           SKY/WX    TMP DP  RH WIND       PRES   REMARKS
ROCHESTER      CLEAR     61  52  72 SE5       29.99R
RED WING       CLEAR     61  55  82 CALM      29.96R
STANTON        CLEAR     63  54  72 E3        29.95S
DODGE CENTER   CLEAR     61  54  77 CALM      29.98R
WINONA         CLEAR     61  54  77 CALM      29.97S
AUSTIN         PTCLDY    61  54  77 CALM      29.97R
PRESTON        CLEAR     63  56  79 CALM      29.99R
$$
ABBREVIATIONS USED IN REMARKS
   TC - TEMPERATURES IN CELSIUS
  WCI - WIND CHILL INDEX
   HX - HEAT INDEX
  VSB - VISIBILITY
$$


USA.gov is the U.S. government's official web portal to all federal, state and local government web resources and services.